Theta_e
308 309 308 309 309 309 310 310 310 310 311 311 311 311 311 311 311 311 311 311 311 311 312 312 311 310 310 310 310 310 310 310 311 311 312 313 312 312 312 313 313 313 313 313 313 312 313 313 314 314 313 313 314 315 315 315 316 317 320 319 317 318 318 318 318 317 317 317 315 313 313 315 315 313 313 314 314 313 314 314 314 315 315 315 315 315 314 315
308 309 308 309 309 310 310 310 311 311 311 311 311 311 311 311 311 311 311 311 311 311 311 311 311 310 310 310 310 310 310 311 311 311 312 313 313 312 312 313 313 313 313 313 313 313 313 313 314 314 314 314 314 315 315 316 315 317 319 317 317 319 317 317 318 316 316 317 316 313 312 315 315 314 314 315 315 314 314 315 314 314 315 315 315 315 315 315
309 309 309 309 309 310 310 310 311 311 311 311 311 311 311 311 311 311 310 311 311 311 311 311 311 310 310 310 310 310 310 310 311 311 313 313 313 312 312 313 313 313 313 313 313 313 313 314 314 314 314 315 315 314 315 316 315 316 316 316 318 319 316 314 315 315 315 315 315 314 312 313 314 314 314 315 316 315 315 316 315 315 315 315 315 315 315 315
308 309 309 309 310 310 310 310 311 310 311 311 311 311 311 311 311 311 311 311 311 311 311 310 310 310 310 310 310 310 311 311 311 311 313 314 312 313 313 313 313 313 313 313 313 313 314 314 314 314 315 316 315 315 315 314 315 315 315 316 316 315 316 314 313 313 313 314 314 314 312 313 314 313 314 315 315 316 316 317 316 316 316 316 316 315 315 315
309 309 309 310 310 310 310 310 310 310 311 311 311 311 311 311 310 310 311 311 311 311 311 310 310 310 310 310 310 310 311 312 312 311 313 314 312 312 313 313 313 313 313 313 313 313 314 315 315 315 316 317 316 316 315 313 314 315 314 314 313 313 316 314 312 312 313 313 314 313 313 314 314 313 314 315 316 317 317 317 316 316 316 316 316 315 315 315
309 309 309 310 310 310 310 310 310 310 311 311 311 311 310 310 310 311 311 311 311 311 310 309 310 310 310 310 310 310 311 312 313 313 313 314 312 312 313 313 313 313 313 313 314 314 315 315 315 316 316 316 316 316 314 313 314 316 314 312 312 312 315 313 312 313 312 313 313 314 314 314 314 314 314 314 316 317 317 316 316 316 316 316 316 315 315 315
309 309 310 310 310 309 310 310 310 310 311 311 310 310 310 310 310 310 311 311 310 310 310 309 310 310 310 310 310 310 311 312 313 314 314 314 312 312 313 313 313 313 313 313 313 315 315 315 316 316 316 315 315 315 314 313 315 316 316 313 312 311 313 313 312 312 312 313 313 313 314 313 314 315 313 313 315 316 316 316 315 316 316 316 316 315 315 315
309 309 310 310 309 309 309 310 310 310 310 310 309 308 308 309 309 310 310 310 309 309 309 309 310 310 310 310 310 311 311 312 313 313 314 313 312 312 312 312 312 313 313 313 313 315 315 316 316 315 316 315 315 315 314 314 316 316 315 313 312 311 312 312 312 312 312 312 312 312 314 314 313 313 312 314 315 315 315 316 315 315 315 316 316 316 316 315
309 309 309 309 309 309 310 310 310 310 309 308 307 307 307 307 308 308 308 308 308 308 309 309 309 309 310 310 310 311 311 312 313 313 312 312 312 312 312 312 312 314 314 313 313 315 315 315 316 315 316 314 315 315 314 315 316 315 314 313 314 313 312 313 312 312 312 312 312 313 314 313 312 312 314 316 316 316 316 315 315 315 315 316 316 316 316 315
309 309 309 308 309 309 309 309 309 308 308 307 306 306 306 306 307 307 307 307 308 308 309 309 309 309 310 310 311 312 312 312 312 312 312 312 312 312 312 312 313 315 314 313 313 314 315 316 315 315 316 315 314 315 314 315 315 313 313 314 315 314 313 313 313 312 312 313 312 314 315 313 312 312 316 317 316 316 316 316 315 316 316 316 316 316 316 315
309 309 308 308 308 308 308 307 307 307 307 306 306 306 306 306 307 307 307 307 308 308 308 309 309 309 310 311 311 312 312 312 312 312 312 312 312 312 312 312 314 315 315 313 314 314 315 315 315 315 316 316 315 314 314 314 314 313 314 315 315 315 314 314 314 313 313 314 312 314 315 313 312 312 316 317 316 316 316 316 316 316 316 316 316 315 315 315
308 308 308 308 307 307 307 307 307 306 306 306 306 306 307 307 307 307 307 307 308 308 308 309 309 310 310 311 310 312 314 313 313 312 312 312 312 312 312 312 314 315 315 314 314 315 315 315 316 316 315 316 316 315 314 313 313 314 314 316 316 316 316 314 314 313 314 315 313 313 315 315 314 314 317 317 316 316 316 316 316 316 316 316 316 316 316 316
308 307 307 307 307 306 307 307 307 306 306 306 307 307 307 307 307 307 307 307 308 308 309 309 309 310 310 310 310 312 315 314 313 313 312 312 312 312 312 313 314 316 316 315 315 315 316 316 316 315 315 315 315 314 315 313 314 315 315 315 317 317 316 314 313 312 313 314 313 313 315 317 318 317 317 316 316 316 316 316 316 316 316 316 316 316 316 316
307 307 307 306 306 306 307 307 307 307 308 308 308 308 308 308 307 307 308 308 308 308 309 309 309 310 310 311 312 311 312 313 313 314 312 312 312 312 312 313 314 316 316 316 316 316 317 316 316 316 315 315 314 314 315 314 314 315 314 315 316 316 316 314 312 312 314 314 312 313 315 318 319 319 317 316 316 315 315 315 316 316 316 316 316 316 316 317
306 306 306 306 307 307 308 308 308 309 309 309 309 308 308 308 308 308 308 308 309 309 309 310 310 310 310 311 312 312 311 311 311 313 313 312 312 312 313 313 314 316 317 317 317 317 317 316 316 315 314 314 315 315 316 315 315 314 313 316 316 315 316 315 311 311 314 313 312 314 316 318 318 318 316 315 316 315 314 315 316 316 316 316 316 316 316 317
306 307 307 307 308 308 309 309 309 309 309 308 307 307 308 308 308 308 309 309 309 309 310 310 310 311 311 310 311 312 311 311 311 312 314 313 311 312 313 313 314 315 316 317 317 317 317 317 316 314 314 314 315 317 317 316 316 315 314 316 316 315 316 315 312 310 311 312 312 313 315 317 317 317 315 315 315 314 314 315 316 317 317 317 316 317 317 317
307 308 308 308 309 309 309 309 309 309 308 307 307 307 307 307 307 307 308 308 309 309 309 310 310 310 311 311 312 313 312 311 311 312 314 313 312 312 313 314 314 315 316 317 317 317 317 316 315 314 315 315 315 317 315 314 315 315 315 316 315 315 314 314 314 311 309 311 314 314 314 316 317 317 315 315 315 313 313 315 316 317 317 317 317 317 317 317
309 308 309 309 309 309 309 309 309 308 307 307 306 306 306 307 307 307 307 307 308 308 309 310 310 310 310 310 312 313 312 312 311 311 313 313 312 312 313 314 314 315 316 316 316 316 316 315 315 316 316 315 315 316 314 313 314 315 316 315 315 314 314 315 315 312 310 312 314 314 314 315 316 317 316 316 315 313 313 314 315 315 316 317 317 317 318 318
312 311 309 309 309 309 309 309 308 308 307 307 306 306 306 306 307 307 307 307 308 309 309 311 310 311 311 310 311 313 313 312 311 311 312 313 313 312 314 314 315 315 315 316 316 315 316 316 316 317 317 316 316 316 315 314 315 316 317 316 315 315 314 315 315 311 310 313 315 315 315 316 316 317 317 317 316 314 313 313 314 314 315 316 317 318 318 318
316 315 313 311 310 309 308 308 308 308 307 307 306 306 307 307 308 308 307 307 309 310 311 311 310 311 311 309 311 314 313 312 312 312 312 313 313 313 314 314 315 315 315 316 317 314 315 317 317 317 317 317 317 316 314 313 314 316 317 316 316 316 314 315 314 310 309 313 316 316 316 316 317 317 317 317 316 314 313 313 313 314 315 316 317 318 318 318
318 318 317 316 313 311 310 308 307 307 307 307 306 307 307 307 308 308 307 307 308 309 311 311 310 311 312 310 311 313 313 313 313 313 313 313 313 314 314 315 315 315 314 314 315 314 314 316 317 317 315 315 315 313 312 312 314 315 316 316 316 316 316 315 313 310 309 313 315 316 315 315 316 316 317 317 316 315 315 315 315 315 315 316 317 317 318 318
321 319 318 318 317 315 314 311 309 308 307 307 306 307 306 306 308 309 308 309 309 308 308 309 309 310 311 311 311 312 313 313 314 314 313 313 314 314 314 314 314 315 313 312 315 315 315 316 316 314 312 312 312 310 312 314 314 315 316 316 315 316 316 313 311 310 310 313 315 315 314 315 316 316 317 317 316 316 316 316 316 316 315 315 316 317 318 318
322 322 320 319 318 318 317 315 312 309 308 307 307 306 306 307 309 310 310 310 310 309 308 308 309 309 310 311 311 312 312 313 314 315 314 313 314 314 314 315 313 314 313 313 315 315 315 315 314 312 311 312 311 310 312 314 314 316 316 315 315 317 316 313 312 310 310 311 313 314 313 315 316 315 316 317 317 316 316 316 315 315 315 316 316 317 317 317
321 323 323 321 319 318 319 319 317 313 309 308 307 306 306 307 308 309 309 309 309 309 308 309 309 309 309 310 311 311 312 313 313 314 314 313 314 314 314 315 313 313 314 313 314 315 315 313 309 309 312 314 313 311 313 314 315 316 316 316 316 317 316 313 313 312 311 311 310 312 314 316 317 317 318 318 316 315 315 314 314 314 315 316 316 316 316 317
321 322 323 323 321 320 319 319 319 316 312 308 307 307 307 308 308 308 308 308 309 309 308 309 309 309 309 309 310 311 312 312 312 313 313 314 314 314 313 313 313 314 314 313 313 315 314 311 309 310 311 314 315 313 314 316 315 316 316 316 316 316 316 314 314 314 314 314 312 312 314 315 317 316 318 318 317 317 316 315 316 315 316 316 316 317 317 317
322 322 323 322 322 321 320 319 319 318 315 310 308 307 308 308 308 308 309 309 309 310 310 309 309 310 310 309 310 311 312 311 312 312 313 314 314 313 313 312 312 313 313 312 313 314 313 309 311 313 312 314 315 314 315 316 315 315 316 316 315 315 316 315 315 315 315 315 314 313 314 315 316 315 317 318 318 318 318 317 318 317 316 316 316 316 317 317
322 322 322 322 322 322 320 319 319 318 314 310 309 308 309 309 308 308 309 309 310 311 312 310 310 311 310 310 310 310 311 312 312 313 313 314 313 313 313 312 311 312 311 312 313 313 313 311 311 314 314 314 314 314 315 315 314 316 316 314 313 314 315 315 316 316 316 316 314 314 315 316 317 317 317 317 317 317 317 318 319 319 318 316 316 316 316 316
320 321 322 322 322 322 321 321 320 319 315 311 308 308 309 308 308 309 309 310 311 312 312 310 310 310 310 310 310 310 311 311 313 314 314 313 313 313 313 312 313 313 311 312 314 313 313 315 314 314 315 314 316 317 315 314 314 315 312 311 312 314 315 315 316 316 315 315 316 316 315 315 316 317 315 316 316 317 317 317 319 321 319 316 316 316 316 316
318 321 321 321 321 321 321 321 321 321 319 314 308 307 309 309 310 311 310 311 312 311 311 311 310 310 310 310 310 310 310 311 313 314 313 313 313 313 313 312 312 313 311 312 314 313 311 313 312 313 315 314 315 314 311 314 315 312 309 311 312 313 314 314 316 316 315 315 317 317 315 313 314 316 315 314 316 317 317 318 319 320 318 316 317 317 317 317
315 318 320 320 320 320 320 321 321 321 320 316 309 308 310 310 311 312 311 313 314 312 310 310 311 310 311 310 309 309 310 311 313 313 313 313 313 312 312 311 311 313 313 312 314 312 309 309 310 313 314 313 311 308 308 313 313 311 313 315 315 314 314 314 315 315 316 317 317 317 316 313 313 316 317 316 316 317 318 318 319 319 317 317 318 318 318 319
312 314 317 319 320 319 320 320 321 321 321 319 311 308 311 312 312 313 313 314 314 313 310 310 311 311 311 311 310 310 310 311 312 313 313 313 313 312 311 312 312 313 314 313 314 312 310 311 312 312 310 310 311 310 308 309 309 312 317 317 316 315 315 315 315 316 317 317 316 314 315 315 313 315 317 316 315 315 316 317 318 319 319 317 317 318 318 318
310 311 314 317 318 319 319 320 321 320 321 320 312 308 312 313 313 315 314 312 312 314 312 311 311 311 311 312 312 311 311 312 312 313 314 314 313 313 312 313 313 314 313 314 315 313 313 314 313 311 309 310 314 314 311 310 310 314 317 316 315 314 314 316 317 317 317 316 313 311 313 316 315 315 316 316 315 315 316 316 316 317 318 317 317 317 317 317
310 310 312 315 317 318 319 319 319 319 321 320 312 310 314 314 314 315 313 312 314 313 312 312 312 312 311 312 313 311 311 313 312 313 314 314 314 314 314 315 315 315 314 314 314 313 313 314 312 312 311 311 314 315 314 313 312 315 317 316 315 314 315 316 315 313 313 314 310 308 313 316 316 316 316 316 316 317 317 316 315 315 316 316 316 316 316 316
309 309 310 312 315 317 317 318 318 318 320 317 310 311 316 315 315 316 314 315 314 311 311 312 312 311 312 313 313 311 311 312 312 313 313 314 314 315 315 314 314 314 313 313 314 313 314 314 313 314 313 313 314 315 316 316 314 315 317 316 315 315 315 314 314 312 312 313 309 308 313 317 317 316 316 315 314 315 315 315 315 314 315 316 316 316 316 314
308 308 309 310 313 315 316 317 318 318 318 315 310 311 314 316 317 317 316 315 314 312 311 311 312 312 312 313 313 312 311 311 312 313 313 314 315 315 315 314 313 313 312 312 313 313 313 314 314 313 312 313 314 314 316 316 315 314 315 315 315 315 313 312 312 312 311 313 312 311 313 315 316 316 315 314 314 315 314 313 313 314 316 317 316 317 317 313
307 307 308 309 311 313 315 316 317 317 317 313 311 311 314 317 318 319 318 315 314 314 311 311 313 313 313 313 313 311 310 312 312 313 314 314 314 315 315 315 314 312 312 312 313 313 312 313 313 311 310 311 312 312 313 314 314 314 314 314 315 315 314 312 311 309 310 313 314 313 314 314 314 315 315 315 316 316 315 314 314 314 317 317 317 318 317 314
306 306 307 308 310 311 312 315 316 316 315 312 312 312 313 315 316 317 317 313 313 313 313 314 314 314 314 314 313 312 311 312 312 313 314 313 314 314 314 314 314 313 312 312 313 314 313 313 312 311 312 311 308 310 312 311 312 314 314 315 314 313 314 313 313 313 312 314 315 315 315 313 313 315 315 316 316 315 315 315 315 316 317 316 316 318 317 315
305 305 306 306 308 310 311 313 315 315 313 311 313 313 311 312 314 314 314 312 312 313 314 315 315 315 315 314 314 312 312 313 313 313 314 313 314 315 314 313 313 313 313 312 312 313 313 313 313 309 311 311 308 311 313 311 310 312 313 314 314 315 315 314 314 315 315 315 315 315 315 313 314 315 315 316 317 316 316 317 316 316 317 316 317 318 317 315
304 305 305 305 306 307 310 313 314 313 312 311 312 313 311 311 312 312 312 312 313 315 316 316 315 315 315 314 314 313 312 313 313 313 314 313 314 314 314 314 314 313 313 312 311 312 312 312 314 309 308 311 311 312 315 313 311 311 312 313 312 314 315 315 314 313 314 315 314 315 315 314 315 316 315 315 317 316 317 318 319 318 317 317 317 317 316 316
304 305 305 306 305 306 309 313 313 312 312 312 312 313 312 312 312 311 312 312 313 315 317 317 316 316 316 314 314 313 313 314 314 314 314 313 313 314 313 313 314 313 313 312 312 313 312 311 312 311 308 311 313 314 315 315 313 312 313 314 313 312 313 313 314 313 313 314 314 314 315 314 315 318 317 315 315 316 317 319 320 319 318 318 318 317 316 316
304 305 306 307 307 308 310 312 312 312 313 314 313 313 312 312 312 312 312 311 311 313 314 316 316 317 317 315 313 313 313 314 313 314 314 312 313 314 313 312 313 312 312 312 312 313 312 311 312 313 311 313 315 315 314 315 316 315 314 315 315 314 313 314 315 313 311 313 314 314 314 315 316 318 316 315 316 317 318 319 319 319 318 318 317 317 318 318
304 304 305 306 308 310 312 312 312 312 313 314 313 313 312 312 312 312 312 311 311 311 312 313 315 316 316 316 315 314 314 314 313 313 314 313 313 314 313 311 312 312 312 313 313 313 313 312 313 315 314 315 315 311 308 312 316 315 314 314 315 315 315 315 317 315 312 313 313 313 315 316 317 320 318 316 317 316 316 317 317 318 318 318 317 316 318 318
304 304 304 306 308 310 312 312 312 312 313 313 313 312 312 312 312 312 312 312 311 311 312 312 313 314 314 315 315 315 315 315 315 313 314 315 313 313 313 310 311 313 313 313 313 313 312 313 313 314 316 317 314 310 308 309 312 313 313 313 313 315 315 315 315 315 315 315 314 314 316 316 318 323 319 313 313 312 312 313 314 316 317 317 317 316 316 318
303 304 305 306 308 310 311 311 312 312 312 312 312 312 312 312 312 312 312 312 312 312 312 312 312 312 313 314 314 314 315 315 315 314 315 316 314 311 311 310 311 313 313 313 314 313 313 315 315 314 315 316 314 313 312 311 311 313 314 313 313 315 316 315 313 313 315 317 317 317 318 316 317 322 317 312 313 313 312 312 312 314 316 316 316 317 317 318
303 303 304 305 308 311 311 310 311 311 311 311 312 312 312 312 312 311 312 312 312 312 312 313 312 313 313 314 314 314 314 315 316 315 314 316 314 310 310 310 311 313 313 313 313 313 315 316 315 314 316 316 316 316 316 315 312 312 314 314 314 314 315 314 314 314 315 317 318 317 317 316 316 318 317 314 315 315 314 313 312 313 315 315 315 316 317 317
303 302 303 304 305 308 308 308 309 310 310 311 311 311 312 312 312 311 312 312 312 311 312 313 313 313 314 314 314 314 314 314 315 316 315 315 315 311 309 310 311 312 312 312 311 314 319 319 315 315 316 316 317 317 317 318 316 314 315 315 314 314 315 315 315 316 316 316 317 317 316 317 316 316 317 316 316 317 317 316 314 313 315 317 317 316 316 316
303 302 303 304 304 305 305 305 306 308 310 310 310 310 311 312 312 311 312 312 312 311 312 313 313 312 314 314 314 314 314 314 315 315 315 315 314 313 310 309 310 311 312 312 311 315 320 317 315 316 316 316 317 317 317 319 318 317 317 316 315 315 315 316 315 316 317 317 317 317 317 318 317 315 316 317 317 317 316 316 315 315 316 318 317 316 316 316
302 302 303 304 304 304 305 305 305 306 308 309 310 310 310 310 311 311 311 312 312 312 312 313 313 313 313 314 314 314 314 315 315 315 315 315 315 315 313 310 310 310 311 312 312 315 318 316 315 317 316 315 316 316 317 318 317 318 317 316 316 315 314 316 316 315 317 317 317 317 318 318 317 315 316 316 317 316 316 316 317 316 316 316 316 317 317 318
301 302 303 303 304 305 305 305 305 306 306 308 309 309 310 310 310 310 311 312 312 312 312 313 313 312 313 313 314 315 314 315 315 315 315 315 315 316 315 314 312 309 310 312 312 313 315 315 315 316 316 316 316 316 317 317 316 316 316 316 316 315 314 315 315 315 316 317 317 317 318 318 317 316 316 316 316 316 315 316 316 316 315 316 317 318 318 318
300 301 302 303 303 304 304 304 305 306 305 306 307 307 308 309 310 310 311 311 312 312 311 312 312 312 313 313 314 314 314 314 315 315 315 315 315 315 314 315 315 310 308 310 312 311 312 315 316 315 316 316 316 316 316 316 316 315 315 316 316 315 315 315 315 316 316 316 316 317 317 317 316 316 317 316 316 316 315 315 315 315 316 316 316 317 317 317
300 300 301 302 303 303 303 304 305 305 305 305 306 306 306 307 308 309 309 309 311 311 311 312 312 312 312 313 313 313 313 313 314 314 314 314 314 314 314 315 316 313 309 310 313 312 311 313 314 314 315 316 316 317 317 316 316 316 315 315 315 315 315 315 315 316 316 316 317 317 317 317 316 316 317 316 316 316 315 315 315 314 315 315 315 316 316 317
300 300 300 301 302 303 303 303 304 304 305 305 305 305 305 306 308 308 308 308 309 310 311 311 311 312 313 313 313 312 312 313 313 313 313 314 313 313 314 313 314 315 313 311 312 311 310 312 313 314 315 316 317 317 317 316 317 317 316 315 315 315 315 315 315 315 315 316 317 317 317 316 316 316 316 316 316 316 315 315 315 314 315 315 315 316 316 316
Wind_Speed
17 16 16 16 15 15 14 14 13 13 12 12 11 11 11 11 11 11 12 12 12 13 13 12 12 11 9 7 6 6 6 6 7 6 6 6 5 6 6 5 4 4 3 3 4 4 3 4 5 5 6 7 7 8 8 7 8 5 2 2 3 3 3 5 8 6 1 2 8 11 13 10 6 8 8 6 8 9 8 11 13 13 14 14 10 8 7 7
18 17 17 16 16 15 14 13 13 13 12 11 11 11 11 11 11 12 12 12 12 13 12 12 12 11 9 7 6 6 6 6 7 6 6 6 6 6 7 6 5 4 4 3 4 4 4 5 6 6 6 7 6 6 6 5 5 2 1 2 3 2 2 3 7 7 1 2 8 10 13 11 5 8 9 7 6 7 9 10 13 15 15 16 15 13 11 9
19 18 17 17 16 15 14 14 13 12 12 11 11 11 11 11 11 12 12 12 12 12 12 11 11 11 9 8 7 6 6 6 7 7 7 7 7 8 8 7 6 5 4 3 4 4 5 6 7 7 8 7 6 6 5 3 3 2 1 3 2 2 2 3 7 7 2 1 7 9 12 10 5 8 10 7 4 6 10 11 11 15 18 17 17 17 15 13
20 19 18 17 16 15 14 14 13 12 11 11 10 11 10 11 11 12 12 12 13 12 12 11 11 10 8 8 7 6 6 6 7 7 8 8 9 10 9 8 7 6 4 4 4 5 7 7 7 8 8 6 4 5 3 2 3 2 1 1 2 3 2 4 8 7 3 1 6 8 9 8 6 10 11 6 5 7 12 15 14 15 17 17 17 17 17 17
20 19 18 17 16 15 14 13 13 12 12 11 11 11 11 11 11 12 12 12 13 12 12 11 11 10 8 8 7 7 6 5 7 9 9 9 10 10 9 7 6 5 4 4 5 7 8 8 9 8 6 5 3 3 2 3 5 4 1 2 3 3 1 4 7 8 5 3 5 8 7 6 7 10 11 9 9 8 9 14 15 15 15 16 16 16 17 17
21 20 19 18 16 15 15 14 13 13 12 12 12 12 11 11 11 12 12 12 12 12 11 11 11 9 8 8 7 9 6 2 6 10 9 10 11 10 9 6 3 2 1 3 5 7 8 9 8 6 4 3 2 2 3 3 4 2 2 2 3 3 3 4 5 6 7 5 6 8 6 6 7 7 10 15 17 12 10 11 11 11 12 14 15 16 17 17
21 21 20 18 17 16 15 14 14 13 12 12 12 12 12 12 12 12 13 13 12 12 12 12 11 9 8 8 7 8 5 1 7 11 9 11 11 10 8 5 2 1 1 3 5 7 9 8 8 8 5 3 2 3 4 4 1 1 3 4 3 3 2 3 4 5 8 7 6 7 7 6 7 6 7 17 25 21 19 17 14 13 12 12 13 15 17 17
20 20 19 18 17 16 15 14 13 13 12 12 12 12 12 12 12 13 13 13 12 12 12 12 11 9 8 7 7 7 5 4 8 9 9 11 11 9 7 4 2 2 2 3 6 8 8 8 10 9 4 3 4 4 4 4 3 2 4 4 4 2 1 3 4 6 7 5 6 7 6 5 7 6 7 19 27 23 23 22 19 19 17 16 16 15 15 16
19 18 18 18 17 16 15 15 14 13 12 12 12 13 13 13 13 13 13 13 13 13 12 12 11 9 8 8 7 6 5 5 7 8 9 11 10 8 6 3 1 1 2 5 7 8 7 8 9 6 4 6 6 5 3 2 2 2 4 5 4 3 2 4 4 5 4 3 5 6 4 3 6 5 10 22 26 24 24 23 22 22 21 21 21 20 19 19
18 17 17 16 16 16 15 15 14 14 13 13 12 13 13 13 13 13 13 13 13 13 12 12 10 9 8 8 7 5 6 7 7 9 9 10 9 7 5 2 1 1 2 6 6 7 8 7 8 8 9 9 6 5 3 1 4 5 6 7 5 3 3 3 3 4 2 2 3 4 3 2 3 2 8 14 14 16 18 20 22 22 23 24 23 23 23 23
18 17 16 16 16 15 15 15 14 14 14 13 13 13 13 13 13 13 13 13 13 13 12 11 10 9 7 8 7 5 7 8 8 9 9 10 9 7 5 3 2 2 3 5 6 7 7 7 9 8 7 8 7 6 6 5 6 6 7 6 5 3 2 2 2 3 2 2 2 2 2 3 2 3 12 12 9 11 11 13 16 18 20 22 23 23 24 24
18 17 17 16 16 16 16 15 14 14 14 14 14 13 13 13 13 13 13 13 13 12 12 11 10 9 7 6 6 6 8 8 8 10 10 10 9 7 6 3 3 4 4 5 8 8 8 9 8 5 6 9 7 5 6 7 6 6 5 3 1 1 2 2 1 2 3 2 3 2 4 7 8 13 20 16 14 15 15 17 17 18 19 19 20 22 23 24
19 18 17 17 16 16 16 16 15 14 13 13 13 13 13 13 13 13 13 13 12 12 11 11 9 9 7 4 5 7 8 7 7 10 11 11 10 9 7 4 4 5 5 5 8 10 8 8 6 7 12 9 4 5 8 7 5 6 3 1 0 2 3 2 1 1 3 3 4 3 5 6 10 18 21 16 17 17 17 20 20 21 21 21 22 22 23 24
18 18 18 17 16 16 16 15 14 13 13 12 12 12 12 12 13 13 13 13 12 12 11 10 9 8 6 4 5 8 8 7 7 9 11 12 11 10 8 5 4 6 6 5 8 9 9 8 7 10 11 8 8 10 7 5 3 3 1 1 0 2 1 3 2 1 3 4 6 4 6 6 5 9 11 14 18 17 18 20 21 23 22 21 22 22 23 23
15 16 16 16 15 15 14 14 13 13 12 12 11 11 11 11 12 12 13 12 12 11 11 10 9 8 5 4 6 7 8 9 8 8 10 12 11 10 9 7 6 6 6 7 8 9 10 9 9 10 9 10 12 8 3 2 2 2 2 2 1 3 1 3 1 1 2 2 7 6 5 6 6 4 4 9 13 14 18 20 21 22 21 22 22 22 23 22
14 14 14 14 14 13 13 13 12 12 11 11 10 10 11 11 11 12 12 11 12 11 10 10 9 8 4 4 6 8 9 10 10 10 11 13 12 11 10 8 6 6 6 6 7 8 8 8 10 10 8 8 6 3 3 2 1 1 2 2 2 3 2 1 2 0 2 0 5 7 4 4 2 1 2 4 7 9 13 17 19 20 19 20 21 22 22 22
13 13 13 12 13 13 12 12 11 11 11 10 10 9 10 10 10 11 11 12 11 11 11 9 9 8 4 5 7 8 11 12 12 11 11 12 12 11 11 9 7 7 6 6 6 6 5 6 8 7 4 2 1 2 3 3 4 2 1 2 1 2 2 1 2 2 0 1 5 7 7 11 7 3 5 7 9 10 11 17 21 21 21 21 21 22 22 23
12 12 12 11 11 12 12 12 11 11 10 10 9 9 9 9 10 11 11 12 11 11 10 9 10 6 5 9 9 9 12 12 12 12 12 12 12 11 11 9 8 8 7 6 4 4 4 5 4 3 3 2 2 5 4 2 2 3 4 3 1 3 4 4 1 2 1 3 5 7 9 15 14 11 14 18 20 19 18 23 26 27 28 28 27 27 28 29
11 11 11 11 10 11 11 11 12 11 11 11 10 10 9 9 9 9 11 13 12 8 4 11 13 4 3 13 13 9 11 12 12 13 13 14 14 13 11 9 9 9 7 4 2 3 3 4 3 3 4 5 7 7 4 1 2 3 3 2 2 3 4 3 1 1 0 4 7 10 12 16 16 13 15 19 21 22 23 25 28 31 32 32 33 34 34 35
8 9 10 10 10 10 10 10 11 11 12 12 12 11 9 9 7 5 10 14 13 7 2 11 17 3 3 13 15 11 11 12 13 14 15 15 16 14 12 11 10 7 4 2 2 3 2 2 3 5 4 6 8 4 3 4 3 4 3 1 1 3 4 1 2 2 1 4 8 8 11 17 18 13 14 18 18 19 21 21 26 31 33 34 35 37 38 38
5 6 8 9 10 10 9 10 10 11 12 11 13 12 8 9 5 3 10 12 13 10 4 10 15 7 4 9 14 13 11 10 12 15 16 16 17 14 11 10 7 4 2 3 4 4 2 4 7 5 1 3 4 5 6 4 3 2 2 1 1 3 5 1 3 1 2 3 6 4 8 16 18 15 16 16 14 18 22 22 24 26 28 33 37 39 40 39
6 5 6 7 8 9 8 9 9 10 11 11 13 11 7 9 7 5 6 6 9 12 8 9 13 11 7 7 11 12 10 7 9 15 16 18 18 12 9 9 5 3 3 5 5 3 3 6 6 3 7 7 6 5 5 3 2 1 1 1 2 2 3 1 3 2 1 3 5 5 8 14 17 17 18 19 18 23 29 28 28 24 21 30 37 40 41 40
9 6 6 7 6 8 8 7 8 9 11 11 12 11 7 7 7 5 3 1 4 9 11 12 13 14 12 9 9 11 10 5 7 15 18 19 18 12 11 9 4 4 5 6 6 4 4 4 2 7 9 8 5 4 5 3 2 3 2 3 3 0 1 2 1 2 3 3 5 7 8 12 15 15 18 22 21 24 29 29 31 32 31 38 42 43 42 42
12 9 7 7 8 7 6 6 6 7 9 11 11 11 9 6 5 3 1 1 2 4 9 12 13 15 15 12 11 11 11 7 6 14 19 19 17 11 9 7 5 5 6 7 7 6 3 1 4 7 7 6 6 5 7 5 4 3 5 6 4 3 3 3 3 2 3 3 2 6 9 8 9 11 12 12 10 16 21 19 25 34 38 40 41 41 40 39
14 12 9 9 9 8 5 5 5 5 8 11 12 13 10 8 5 2 1 1 2 3 6 10 10 13 16 14 11 10 10 9 8 12 18 21 18 10 6 6 5 5 6 6 3 6 3 5 8 7 3 4 5 5 7 6 4 3 6 9 9 6 3 1 3 4 3 2 1 3 8 4 2 6 8 5 4 10 11 10 17 26 29 32 34 36 36 35
17 15 12 11 11 9 7 5 4 4 6 9 13 14 12 10 7 4 3 2 3 2 3 7 8 9 12 12 12 11 5 7 10 12 17 21 17 10 6 5 1 2 6 6 2 3 1 5 6 6 6 6 4 4 5 5 4 3 3 6 9 5 1 2 1 2 4 3 1 1 5 6 3 8 12 8 7 11 9 9 16 22 24 29 33 36 35 35
16 19 16 14 13 11 7 5 5 4 4 6 11 14 13 11 9 6 4 2 4 5 6 7 8 9 10 11 17 13 3 5 10 12 19 21 16 10 6 5 2 2 6 4 2 1 4 6 4 5 7 6 5 4 5 8 6 1 1 1 5 5 4 4 2 3 3 4 2 4 3 7 8 7 9 9 10 12 13 14 16 17 20 25 27 28 27 27
16 17 19 18 15 11 8 7 6 5 5 3 8 14 14 13 12 8 4 4 2 6 5 6 8 10 13 17 19 10 4 9 7 9 20 21 16 9 5 7 6 6 7 6 5 2 3 7 7 8 7 5 5 1 5 11 5 1 1 1 3 3 3 3 2 2 1 4 5 4 5 6 8 3 2 2 7 9 14 17 15 10 11 16 17 17 17 17
17 17 18 17 14 13 12 11 9 8 5 4 8 15 15 15 12 6 2 4 2 5 3 7 9 8 14 16 11 5 7 5 1 9 18 17 15 7 3 8 7 5 5 3 3 1 2 2 5 7 5 5 3 4 2 8 3 3 6 5 6 5 4 3 1 1 2 5 5 6 8 5 10 5 5 2 4 8 13 14 10 7 8 10 11 12 12 12
16 16 16 14 14 17 16 14 12 10 8 5 9 17 18 14 8 4 2 3 2 3 4 7 7 7 15 13 3 2 4 2 4 13 12 8 10 5 4 7 4 4 2 3 1 1 2 2 1 3 2 3 6 6 4 1 6 10 8 6 7 5 3 3 1 1 1 7 3 8 11 6 8 5 7 6 4 6 9 9 7 7 7 7 8 10 11 10
14 14 14 15 17 18 17 18 16 14 11 7 10 19 17 7 2 4 5 0 1 3 5 4 3 8 15 11 4 3 2 2 7 12 8 4 6 4 6 6 4 3 1 4 3 1 1 1 1 2 4 7 8 7 6 4 5 6 4 4 4 2 1 1 1 2 5 7 1 4 5 6 8 6 4 4 2 4 6 6 7 6 7 10 10 11 12 11
14 14 13 15 17 16 18 19 16 15 14 11 16 21 13 3 2 6 4 3 1 4 4 2 1 6 10 6 3 6 3 2 6 8 5 4 6 6 6 6 6 4 4 7 4 2 2 3 2 3 6 8 6 6 6 2 2 2 3 6 4 3 2 3 3 3 5 5 1 1 1 4 11 9 6 9 10 11 10 9 11 10 13 20 19 17 17 16
15 15 13 13 14 16 18 17 15 16 16 17 22 16 5 4 8 8 7 4 1 0 3 3 2 3 8 6 4 4 2 1 6 5 2 3 5 7 6 4 4 2 3 6 4 3 3 1 4 5 4 9 9 6 5 4 5 7 7 8 6 4 4 6 3 1 5 3 2 1 2 5 11 9 10 17 17 16 16 18 21 20 24 31 30 27 28 26
13 15 15 15 14 15 15 16 17 17 18 20 18 8 2 7 9 9 10 4 1 2 3 3 5 4 4 3 2 4 2 2 6 4 2 4 4 6 6 5 6 2 1 3 3 6 6 4 7 9 5 12 14 7 5 5 7 8 4 3 5 5 5 5 3 3 4 1 1 1 2 6 7 2 3 9 11 14 17 20 23 27 33 37 35 35 35 32
11 13 16 17 16 16 14 15 17 18 21 21 13 5 7 9 7 8 8 4 2 3 3 3 6 6 3 1 1 2 2 1 4 4 3 6 5 7 8 8 11 7 3 4 3 4 5 5 4 4 3 12 12 3 4 6 4 4 1 1 5 4 2 1 1 1 0 1 2 3 4 7 6 5 5 7 9 11 12 14 18 25 32 33 33 36 35 28
10 11 15 16 18 19 16 16 16 19 23 20 9 4 9 6 3 4 3 3 5 6 7 4 4 5 5 3 1 2 1 1 5 4 3 4 3 5 6 5 10 12 9 7 3 3 4 2 2 2 1 5 4 0 3 2 3 4 3 4 3 1 1 2 1 3 2 5 5 4 6 7 7 10 9 9 11 10 7 9 13 20 27 28 29 35 33 23
11 11 13 15 18 18 18 17 16 20 23 17 6 5 5 3 3 2 1 2 7 10 9 6 5 6 6 5 4 6 3 2 5 5 4 4 3 6 7 3 7 15 15 8 2 2 3 1 1 1 1 2 2 3 3 2 2 4 5 5 2 2 1 2 4 1 3 7 4 4 8 8 6 7 1 3 8 10 9 10 12 18 23 25 30 36 33 24
13 12 13 15 16 16 18 18 17 20 19 9 4 6 3 3 4 3 2 3 6 8 7 6 6 5 6 7 5 7 6 4 6 6 4 4 4 8 11 5 7 17 19 10 2 1 3 3 1 1 1 1 2 2 3 2 3 2 1 3 2 2 4 4 5 4 5 6 3 4 7 7 9 8 3 4 7 8 10 10 10 13 16 21 32 36 31 27
13 10 11 14 15 16 18 18 21 22 13 3 5 6 5 5 5 5 8 5 2 4 5 7 6 2 4 6 4 6 7 6 8 7 5 5 5 6 12 10 7 13 19 14 4 1 3 5 3 1 2 1 2 5 7 4 2 2 0 2 1 2 3 4 3 2 5 5 4 4 4 7 10 7 8 12 12 10 10 9 8 10 14 23 31 29 26 24
11 7 6 10 14 15 18 21 24 19 8 4 7 4 4 6 6 11 15 9 1 2 4 4 5 3 2 3 2 4 6 4 7 7 4 6 6 4 8 10 4 4 12 15 7 1 3 4 3 2 1 2 5 7 8 10 8 5 6 6 4 2 0 2 2 1 2 4 4 3 5 10 8 4 8 13 11 10 11 8 7 11 18 26 27 22 20 17
10 5 4 10 14 18 23 22 17 11 4 5 7 4 4 5 6 11 15 11 4 3 4 3 5 5 3 3 2 3 3 2 4 5 3 6 8 4 6 11 8 7 7 8 7 5 4 3 4 4 3 6 4 1 4 7 8 8 9 10 10 8 5 4 5 2 1 3 3 2 6 12 6 3 6 10 8 8 10 8 8 12 20 24 24 19 14 8
11 5 5 13 17 24 27 16 8 8 7 7 7 5 5 5 6 10 13 12 7 4 4 3 4 6 5 5 5 2 3 3 3 4 3 6 9 6 5 10 14 15 10 4 4 5 4 1 3 4 4 4 1 2 1 3 2 3 4 5 6 7 8 8 6 4 2 2 1 0 5 12 6 4 3 5 5 6 9 10 10 15 21 22 22 19 11 9
12 8 9 15 20 29 26 9 6 9 8 7 5 5 8 7 5 8 10 11 8 4 5 3 2 6 6 5 6 5 5 4 4 6 6 5 8 7 5 9 15 13 7 2 2 4 4 1 4 4 2 1 1 1 1 3 2 4 4 1 2 6 9 6 2 2 4 4 4 3 5 13 8 3 2 1 2 4 8 11 13 17 23 24 21 18 11 11
11 11 11 13 21 30 22 6 7 11 8 7 6 6 10 8 6 8 9 11 9 5 5 5 4 6 5 3 5 7 8 6 5 9 9 6 4 6 10 15 16 10 7 4 5 9 7 2 3 4 4 3 3 3 3 1 2 4 5 4 7 10 7 1 1 2 4 8 11 8 7 13 8 4 3 1 1 4 7 11 14 18 24 25 21 17 13 14
8 10 12 13 21 29 21 7 5 9 11 11 9 10 11 6 8 14 13 11 11 7 5 7 7 6 4 2 3 5 8 8 6 7 9 6 2 3 11 19 19 14 12 8 8 13 7 3 5 6 7 8 8 6 4 4 4 4 5 6 9 12 10 5 3 5 7 11 13 9 9 15 12 3 4 2 1 4 7 11 15 19 23 23 19 17 15 17
8 7 8 10 16 21 16 9 6 6 11 13 10 11 13 8 7 14 14 11 13 12 8 6 7 7 5 5 5 5 8 10 8 4 4 4 2 1 8 17 21 21 17 11 13 12 3 2 7 10 11 11 11 8 3 5 6 7 11 11 10 12 14 9 5 7 11 11 10 11 14 19 21 16 8 5 4 6 7 8 12 16 19 18 18 18 17 17
9 6 6 6 7 11 10 8 8 6 7 11 9 7 14 14 7 8 13 11 12 15 9 3 6 8 7 10 10 8 9 10 9 7 5 4 2 1 3 9 16 20 14 10 14 10 2 3 10 13 15 15 15 15 7 8 8 11 14 14 12 13 15 13 11 15 15 11 11 16 19 18 22 24 18 8 5 6 6 6 12 17 18 17 18 20 18 17
10 6 11 11 5 5 8 10 12 11 8 8 8 7 12 16 13 10 11 9 11 15 9 4 9 13 12 12 10 8 9 9 9 9 8 6 4 1 0 2 9 14 10 8 10 8 2 6 11 13 17 17 19 19 11 10 11 12 12 14 14 15 16 17 18 21 19 14 12 16 19 17 18 25 22 10 7 11 12 13 18 20 17 16 20 22 22 23
12 6 11 14 6 2 5 9 11 13 11 7 6 7 10 15 16 13 8 6 9 13 11 8 11 14 15 13 11 9 10 9 9 10 9 9 7 5 3 3 4 6 5 4 3 2 3 7 11 13 14 17 19 20 15 12 13 13 11 10 11 15 18 19 22 23 22 19 14 17 22 20 20 24 16 8 12 19 19 21 23 23 22 22 24 24 25 29
16 10 8 9 6 2 3 6 9 10 10 8 5 5 6 10 13 11 8 8 8 10 14 16 15 13 13 13 13 12 11 10 10 10 10 9 8 6 5 4 3 1 3 3 1 2 3 6 9 8 8 13 17 19 19 15 12 13 11 7 9 15 19 22 22 18 17 18 18 22 24 21 21 19 13 17 23 18 14 18 23 28 31 30 30 30 30 33
21 16 11 6 5 6 5 4 7 7 6 8 8 7 7 8 11 8 4 8 11 9 11 17 18 14 12 14 16 16 17 17 16 16 15 13 12 11 8 7 7 4 2 5 3 1 3 4 5 4 6 10 14 18 19 16 11 10 11 11 15 17 16 16 16 14 16 19 20 20 18 17 19 12 10 22 24 13 11 15 18 26 32 33 35 38 37 38
23 19 17 11 6 7 6 3 4 7 7 8 10 9 6 7 9 9 4 7 12 13 13 15 15 10 10 14 15 16 19 21 21 23 23 21 19 17 14 13 15 11 5 4 3 4 5 4 4 5 6 9 15 17 13 11 8 8 13 20 23 21 16 13 14 17 21 19 15 14 13 15 17 12 11 20 18 11 13 14 16 25 33 35 39 42 41 42
Wind_Direction
195 194 191 190 191 191 192 191 193 194 196 200 202 204 205 206 206 207 207 204 200 197 196 194 192 190 187 187 183 176 170 170 170 167 162 156 147 142 135 124 130 135 143 153 157 172 161 145 145 132 128 129 128 125 126 128 134 146 165 195 191 177 174 174 179 173 134 172 166 175 187 194 187 189 203 212 213 219 231 229 230 233 233 235 230 220 218 210
194 195 194 192 193 192 194 194 194 196 199 202 205 208 208 208 207 208 207 204 201 199 198 196 193 190 188 188 185 180 175 174 171 171 171 164 151 140 133 123 121 124 127 141 162 171 168 159 148 138 139 125 114 127 127 116 122 114 121 207 209 161 138 166 175 167 179 192 163 172 187 197 199 178 191 212 205 206 229 234 232 238 238 236 233 228 226 226
193 194 195 194 194 194 196 197 197 199 202 205 209 210 211 210 209 209 207 205 201 199 199 197 194 191 188 188 187 182 178 177 176 177 176 169 157 144 136 127 115 112 113 133 164 166 160 150 141 140 138 119 111 132 121 109 125 78 176 219 197 128 112 166 177 162 126 161 158 168 185 197 206 178 189 216 207 201 227 230 224 233 239 239 237 235 234 235
192 193 195 194 195 198 199 200 200 203 206 209 212 213 212 210 209 208 205 204 201 199 199 197 193 192 190 190 187 179 174 180 185 184 178 170 163 155 146 133 115 102 103 125 149 151 150 141 137 140 128 110 105 122 96 69 133 116 191 259 75 130 131 153 181 174 136 132 164 167 176 196 202 188 192 201 216 223 232 234 232 237 243 246 245 242 241 241
191 192 194 194 197 200 203 204 203 205 209 211 214 213 211 208 207 206 204 202 200 199 199 197 193 193 193 191 189 173 167 181 188 185 178 173 171 168 161 147 124 100 100 121 142 147 147 142 143 139 118 110 115 118 74 58 117 116 57 24 77 134 104 132 178 193 191 170 167 169 175 197 191 195 204 204 226 236 234 240 242 246 249 253 252 248 246 245
191 191 193 195 199 203 205 207 207 209 210 212 213 212 208 206 204 203 202 200 199 199 198 195 191 194 195 193 193 180 182 206 180 181 179 177 179 177 175 168 148 107 90 134 150 151 146 150 148 133 105 99 72 83 97 105 130 125 70 97 120 100 65 131 171 196 194 179 173 181 193 197 186 208 218 218 232 239 241 247 249 249 250 253 253 248 245 245
192 191 194 197 201 205 207 208 210 212 214 213 212 209 206 202 201 200 200 198 197 198 196 192 190 193 194 194 193 185 197 204 167 177 178 180 183 184 188 192 209 260 233 166 164 159 149 158 150 126 110 97 96 84 93 108 100 83 116 141 151 93 62 133 161 183 178 185 189 188 199 196 199 223 231 234 239 241 246 251 252 254 255 255 253 250 249 248
197 195 197 199 202 205 207 210 212 214 215 214 211 207 204 200 198 198 197 197 195 195 193 190 189 192 193 194 188 176 177 157 161 171 172 177 181 187 197 205 238 280 231 194 174 164 151 157 149 132 105 89 125 114 104 115 74 59 120 143 152 105 101 131 134 158 162 183 183 182 196 200 220 242 255 249 248 248 250 253 254 256 257 256 254 254 252 251
201 200 202 202 203 203 205 208 211 213 212 210 208 204 200 196 194 193 194 193 190 190 188 187 188 190 191 192 187 176 173 167 163 165 166 172 176 183 189 194 232 287 214 190 173 168 157 157 153 148 133 115 121 112 112 155 73 68 109 129 139 106 106 124 131 150 156 163 168 187 195 213 241 263 263 255 255 256 255 254 253 253 255 256 256 257 256 255
200 201 204 204 202 201 202 204 206 207 205 204 203 200 196 192 190 188 188 188 185 184 184 186 186 187 189 189 190 184 182 178 168 168 166 167 172 178 176 175 187 105 183 175 167 167 160 159 148 134 128 121 113 91 64 46 99 101 109 109 96 77 96 121 148 156 180 167 177 217 200 231 249 251 258 252 249 252 253 253 252 252 252 253 254 256 257 256
194 197 201 201 200 197 195 197 200 200 200 198 196 195 192 189 187 184 184 183 183 181 182 184 184 185 185 186 188 180 182 184 177 174 171 169 172 174 173 173 157 121 148 160 153 151 147 144 142 135 123 124 119 87 73 92 99 101 121 121 74 53 107 135 170 174 214 200 191 233 250 249 192 214 246 242 237 246 253 256 254 254 253 253 253 253 255 255
189 193 195 196 196 193 191 194 195 195 196 193 192 190 187 187 185 182 182 180 181 180 179 181 182 184 182 183 179 161 168 177 179 180 176 173 173 174 174 172 159 123 121 150 139 131 131 133 142 136 124 137 132 101 101 101 97 98 112 148 86 64 190 153 175 212 224 221 153 148 261 239 201 227 243 242 248 255 260 262 261 259 257 256 256 254 253 253
189 190 190 193 193 193 193 195 194 194 194 192 191 188 185 186 183 181 181 179 180 179 178 179 180 183 181 179 178 171 169 167 173 182 180 177 175 177 173 167 165 131 123 145 132 123 125 130 138 128 127 131 117 121 118 91 96 109 79 329 178 222 219 123 59 236 218 210 152 154 266 239 204 228 241 246 252 257 260 262 262 261 260 258 257 257 256 254
189 189 190 191 191 193 194 195 195 194 194 192 190 190 189 187 184 182 180 179 179 177 178 179 179 184 184 176 182 187 191 189 183 182 183 184 180 177 172 162 155 135 126 130 126 119 112 114 126 123 120 116 115 124 113 69 70 102 67 282 167 243 184 94 60 200 211 197 160 180 261 254 223 226 235 247 251 255 258 260 262 262 260 259 256 256 255 254
187 189 190 190 190 193 195 196 197 196 195 192 189 189 189 188 188 185 182 180 179 178 179 180 182 184 180 182 193 197 199 200 196 189 187 186 184 178 169 160 151 141 132 127 124 116 110 115 120 109 101 116 127 131 112 80 65 53 231 183 129 242 185 91 90 192 242 187 168 197 256 262 262 254 238 252 252 250 255 260 263 264 262 260 257 256 255 255
186 189 190 191 192 196 197 198 200 199 196 191 186 184 183 186 185 185 186 182 180 181 179 183 188 187 186 191 200 208 205 202 197 191 190 186 184 180 170 161 152 146 136 130 124 118 119 119 111 102 103 124 138 150 130 150 161 86 258 225 154 218 253 97 119 126 311 69 193 221 265 269 260 281 242 245 248 247 256 262 265 266 266 263 260 258 258 257
189 192 195 194 194 198 199 202 202 199 195 189 184 177 174 174 175 178 179 179 179 177 177 181 181 187 211 201 197 208 205 204 199 191 189 185 182 180 176 165 153 152 146 138 131 124 121 113 111 107 103 110 137 168 166 218 221 172 226 248 205 219 251 250 133 110 302 256 226 227 250 257 252 265 261 259 269 268 262 264 267 269 268 266 265 263 261 260
188 194 199 201 203 202 200 202 200 198 194 187 181 173 168 165 166 168 169 171 166 161 171 171 164 179 217 197 197 204 197 196 194 189 185 182 179 179 182 173 160 157 144 137 131 116 104 99 111 121 113 123 158 189 204 219 209 187 191 207 226 213 228 261 258 121 177 233 238 231 246 259 257 255 260 263 268 269 265 266 269 269 268 268 267 265 263 263
181 187 194 198 206 210 209 205 199 198 192 186 180 170 164 156 154 162 166 164 159 155 173 178 174 176 199 186 186 183 183 182 184 187 183 182 180 176 177 171 163 155 144 152 130 96 103 103 119 172 184 188 191 202 207 83 84 139 160 191 203 229 239 239 245 54 270 253 251 247 255 268 267 259 258 262 265 265 264 266 267 267 267 268 267 266 264 262
182 182 185 187 193 203 212 210 205 199 191 187 179 167 159 153 144 164 178 174 175 177 167 184 186 165 104 174 179 164 162 172 177 181 183 183 178 172 168 158 154 150 141 170 125 94 131 167 191 214 215 196 190 180 103 80 77 102 121 179 185 256 266 187 108 54 53 269 260 249 263 273 275 272 264 263 267 266 261 258 259 262 264 266 267 267 265 264
198 198 189 182 182 186 195 204 209 203 195 190 180 172 170 177 170 159 180 189 198 200 181 181 189 182 120 160 176 171 161 166 175 179 182 180 175 173 168 155 155 164 116 93 105 105 147 207 226 224 112 120 147 119 107 109 86 96 166 237 226 249 264 137 85 58 113 253 267 267 276 275 276 277 271 262 258 262 259 253 254 257 260 264 267 267 267 266
194 224 219 201 187 177 177 188 201 202 199 195 186 183 189 197 194 163 169 191 210 215 219 201 200 206 192 166 176 180 169 158 174 181 179 176 177 180 169 164 178 174 126 112 124 132 191 226 230 138 93 87 97 122 141 136 115 131 162 248 255 254 280 289 82 55 146 226 275 295 285 276 276 278 273 262 250 255 258 256 258 261 261 263 265 267 267 268
197 211 230 238 219 185 169 176 190 194 197 197 192 193 195 195 192 183 182 179 212 222 225 218 219 222 216 206 198 191 183 169 173 182 182 178 180 182 171 168 170 138 149 181 185 181 195 234 193 124 130 121 102 142 153 138 175 198 183 215 246 15 292 261 86 85 170 219 296 303 289 277 274 272 268 261 251 253 259 258 261 263 262 263 265 267 267 268
209 214 221 239 248 219 178 174 185 186 194 196 195 198 199 190 183 191 179 12 285 237 227 223 223 228 225 221 215 201 199 204 186 185 188 183 176 177 175 159 142 147 176 192 200 210 204 56 114 135 155 146 127 158 174 183 204 211 212 221 237 225 226 249 353 349 204 204 285 295 287 269 256 260 264 265 257 260 261 258 261 261 261 264 266 266 265 265
208 221 226 226 243 242 210 199 192 190 196 193 193 195 195 189 181 187 120 38 290 236 233 228 222 231 226 221 216 200 202 215 208 195 191 187 177 163 153 150 162 184 178 160 183 241 230 113 132 137 145 152 147 173 190 199 205 217 220 221 234 244 234 215 359 334 272 242 164 300 292 266 204 252 263 279 292 273 258 241 255 261 262 263 263 265 265 266
208 213 222 227 235 235 224 218 198 200 200 193 195 191 186 180 166 164 131 55 276 199 188 206 205 217 213 207 190 178 203 221 208 199 189 189 183 165 145 143 170 186 153 145 179 257 190 131 138 139 150 159 172 195 194 197 212 234 222 221 232 241 233 200 254 294 282 300 178 186 283 281 270 252 254 259 267 275 270 254 257 258 259 261 263 267 269 270
218 209 210 222 231 227 219 214 201 183 169 189 198 187 178 168 154 152 146 310 264 174 149 176 183 193 193 179 170 174 210 169 172 186 184 186 185 182 180 157 139 151 143 146 213 219 143 155 157 145 153 163 186 199 186 191 205 216 65 199 202 189 200 204 193 229 279 327 262 182 224 278 279 247 246 254 256 275 282 274 266 257 258 264 269 274 276 275
234 218 212 215 223 225 215 213 209 174 143 152 182 178 170 158 148 143 169 261 239 136 142 165 166 178 175 166 167 164 125 138 148 179 180 183 183 184 204 189 175 167 163 179 216 214 141 178 185 169 171 188 193 179 169 182 200 352 92 105 139 153 173 159 168 223 328 326 274 175 164 262 280 229 131 276 248 261 271 269 269 264 270 277 280 287 287 283
231 225 224 220 218 218 213 211 208 196 174 119 152 167 159 150 144 122 158 239 160 113 131 155 155 164 157 157 165 135 120 133 84 166 172 179 183 181 199 192 177 143 163 221 240 31 43 202 194 180 190 195 155 38 176 189 177 138 140 99 89 83 73 96 203 187 104 281 261 164 165 247 288 250 133 108 225 234 254 263 270 280 290 291 294 300 295 286
225 222 225 224 220 216 214 211 209 208 189 148 155 160 151 146 142 131 188 223 170 107 108 145 157 157 150 150 153 93 123 81 99 142 154 170 180 167 117 151 143 119 149 303 294 93 44 57 146 201 209 127 108 64 14 64 125 143 144 102 92 84 66 81 38 81 209 262 226 157 176 212 289 268 152 158 203 219 239 256 270 283 292 288 298 308 301 290
226 223 216 219 225 222 219 214 211 209 199 184 165 158 152 139 128 184 192 147 87 134 122 138 145 151 158 158 162 159 125 65 134 147 148 156 166 143 125 139 125 124 202 257 219 112 68 147 143 178 141 115 107 81 45 53 129 151 148 131 125 126 133 134 138 151 230 250 172 143 188 206 245 250 147 166 266 254 241 250 265 284 293 280 283 293 295 292
221 224 216 218 225 225 224 222 215 207 204 195 175 166 160 142 203 219 189 97 136 181 145 143 152 163 167 159 151 158 135 118 163 168 158 158 173 175 184 188 166 167 228 221 198 112 194 200 128 125 149 155 143 100 77 65 202 216 161 161 191 204 196 226 203 180 234 242 46 32 221 223 244 258 276 272 270 258 247 245 257 273 281 279 278 276 276 276
215 217 218 217 221 223 224 226 220 210 210 199 181 170 154 182 202 215 193 153 185 189 100 105 115 160 162 157 159 150 120 153 171 178 167 159 190 201 218 231 184 208 241 191 178 170 206 233 138 152 176 190 187 157 154 184 195 198 178 173 198 196 209 233 199 191 264 248 38 8 177 241 266 276 262 255 256 255 252 251 256 265 273 276 277 275 272 268
212 213 215 215 220 222 222 224 217 213 214 197 174 147 144 203 210 209 197 182 45 48 64 97 120 130 154 163 178 163 153 182 166 162 158 160 189 212 223 231 215 241 45 160 186 189 216 254 178 170 162 182 197 203 166 147 171 195 186 174 204 198 211 232 203 226 260 128 79 300 197 228 253 314 242 254 275 275 267 260 258 261 265 269 273 275 274 269
208 210 211 212 215 212 212 218 215 218 212 186 155 141 188 201 218 212 195 160 106 103 66 86 125 138 182 282 345 213 223 205 167 153 169 179 195 204 202 205 201 188 156 197 204 168 227 267 172 153 136 170 187 200 114 117 160 193 85 195 231 222 200 246 311 220 10 10 203 206 241 241 252 296 270 256 278 275 268 268 262 258 259 263 269 272 272 272
213 211 209 212 213 207 205 208 216 224 207 174 142 191 199 206 227 202 180 136 137 134 119 118 136 152 186 200 211 228 280 88 156 169 201 208 235 218 208 211 195 186 184 193 178 146 215 272 80 45 355 175 191 82 128 159 181 160 165 199 229 327 111 171 245 82 92 267 247 201 249 267 283 282 254 227 245 249 251 264 259 256 259 262 265 266 268 274
222 220 217 214 213 211 204 201 215 219 197 167 153 204 203 254 239 160 100 116 128 138 143 163 189 180 183 190 189 192 192 130 164 192 194 186 244 219 207 243 194 191 201 205 209 211 212 253 73 102 201 202 341 41 83 15 49 135 186 187 143 14 7 206 235 190 189 247 254 212 245 262 267 269 230 160 235 245 246 250 250 255 259 261 263 264 268 274
225 230 233 223 215 211 201 199 211 206 186 160 187 205 199 240 215 169 155 128 125 149 175 199 194 181 187 192 182 173 180 172 168 192 185 174 230 199 182 205 199 198 208 212 235 233 199 234 231 65 263 125 75 163 159 59 39 61 203 167 139 225 209 188 212 223 220 233 246 240 254 259 241 239 244 216 221 232 240 239 241 249 251 253 259 263 268 273
225 231 242 232 219 209 197 197 199 189 172 161 213 207 204 212 221 202 181 164 115 156 192 212 202 195 189 184 161 154 183 189 165 179 194 185 215 186 177 196 201 197 198 190 193 138 171 232 231 94 299 76 124 212 198 155 92 24 304 187 213 263 223 191 185 221 233 227 242 261 271 262 241 216 219 231 224 219 229 231 231 238 244 252 258 264 272 277
211 218 242 221 209 202 191 189 189 179 166 206 208 191 177 189 218 217 198 182 140 173 203 223 211 215 181 162 150 162 192 207 170 184 209 186 202 205 186 193 174 165 185 183 194 177 142 226 230 114 297 210 184 207 197 177 170 180 199 195 191 187 298 273 221 184 251 237 246 267 272 269 258 181 191 218 216 211 218 225 229 234 245 254 259 265 276 277
191 204 228 191 185 184 181 182 184 182 196 218 211 206 175 169 191 209 204 194 189 193 194 200 204 210 182 163 204 173 170 193 179 197 224 198 212 223 193 195 167 125 151 176 202 205 170 204 207 159 187 208 199 206 216 199 182 186 197 196 198 182 158 218 218 169 257 253 236 239 267 270 266 134 186 208 202 206 211 215 231 239 244 253 261 264 268 260
189 204 199 180 179 177 175 180 186 192 215 216 208 198 165 153 174 192 197 199 210 222 196 191 199 201 197 201 211 161 139 176 184 198 231 223 219 213 193 196 173 149 145 155 197 187 143 144 213 198 200 209 187 51 356 305 295 262 237 205 207 187 177 209 215 177 172 208 251 298 266 268 261 112 153 197 188 213 208 202 224 243 248 255 264 264 248 214
198 207 184 177 185 181 176 186 200 195 221 217 185 164 169 173 178 182 188 194 201 204 196 195 186 197 207 204 196 175 169 190 192 199 234 254 229 223 212 183 169 159 155 143 158 149 127 175 225 226 221 154 92 115 84 33 7 274 264 179 199 209 205 218 230 187 186 176 200 209 234 261 267 99 111 192 163 223 216 206 219 241 254 258 259 257 244 211
203 208 195 183 189 187 183 197 200 198 222 208 175 187 197 197 180 173 186 197 195 184 190 206 204 206 214 179 173 184 186 195 209 208 224 251 227 211 205 186 175 176 190 196 172 161 163 195 206 226 246 214 199 199 188 145 165 233 238 194 207 214 195 119 44 229 227 206 209 215 233 255 261 95 97 184 179 233 240 231 232 243 255 260 252 239 230 217
186 205 218 210 199 195 197 211 204 204 215 206 200 208 209 209 193 191 194 197 195 187 190 206 202 194 195 158 165 187 189 202 223 214 218 239 234 176 199 194 186 193 210 207 166 159 169 194 175 198 234 227 223 218 197 177 165 208 230 200 206 205 182 173 206 212 231 226 217 219 240 253 255 194 142 163 204 248 252 246 247 248 251 257 255 238 222 220
179 196 222 221 214 213 217 225 220 215 213 209 211 216 215 219 203 197 199 199 198 198 199 206 194 183 183 186 195 205 204 214 226 214 207 226 218 158 207 200 196 203 210 196 166 156 150 241 191 205 225 229 241 244 173 121 149 199 216 201 193 196 192 193 210 216 226 235 232 225 231 251 264 258 226 170 172 229 241 238 244 248 242 241 249 245 230 225
194 198 198 192 212 229 235 230 219 220 214 204 201 211 215 218 213 195 199 203 202 201 208 217 185 185 191 195 208 219 210 215 225 223 227 227 213 304 221 204 209 214 210 187 174 160 96 231 210 222 232 236 251 251 208 153 182 206 210 202 188 188 193 196 213 224 223 230 241 234 229 241 262 265 254 227 202 230 239 229 231 236 234 235 247 253 249 246
205 214 205 195 189 217 227 220 207 209 218 206 202 214 214 215 219 207 197 206 206 200 206 224 203 204 202 194 205 221 208 211 223 220 226 229 219 234 176 199 223 221 207 186 185 169 154 224 216 223 235 241 252 255 232 192 209 216 209 203 191 185 190 199 216 226 224 224 240 247 242 238 251 262 261 243 222 236 239 234 232 234 240 249 256 262 267 265
208 223 208 205 211 210 209 205 193 201 215 210 208 223 214 212 217 211 191 194 210 203 203 215 214 212 212 206 209 220 211 211 219 216 220 225 219 215 219 226 238 224 191 169 204 183 173 227 226 223 236 243 247 254 248 225 230 239 229 211 194 190 193 202 216 224 225 230 244 255 254 249 249 256 265 266 250 249 248 243 238 241 251 258 260 262 266 263
208 211 197 201 219 197 160 173 173 188 208 204 206 221 211 209 212 205 188 192 208 205 204 217 222 213 211 214 218 225 221 214 224 224 215 218 220 212 215 220 211 172 130 134 287 296 189 224 234 225 242 252 250 255 256 245 242 249 244 224 208 207 205 210 220 225 229 236 241 246 253 257 254 253 269 279 268 257 248 241 236 241 248 255 260 262 261 259
211 210 202 195 206 196 177 159 166 181 198 197 205 213 210 218 213 198 196 218 221 217 207 217 226 220 214 217 219 228 230 225 231 234 223 222 224 214 211 207 192 178 151 166 177 149 176 231 250 223 233 249 248 249 253 253 254 256 256 242 227 222 219 220 226 228 231 235 238 241 246 254 256 252 262 269 266 253 239 236 233 242 247 249 254 256 256 257
211 208 209 212 216 200 195 178 173 194 206 201 207 213 205 205 199 191 213 226 220 231 235 231 235 232 221 220 220 228 235 235 239 242 238 237 234 227 223 212 197 185 166 166 161 147 173 209 235 221 226 244 246 246 249 256 256 246 244 240 235 233 231 234 237 234 231 232 235 238 236 244 260 267 259 260 260 250 247 243 235 244 248 247 248 251 253 254